Location: Rometta
(44.2000°N, 10.0500°E)
Time: 10:24:23
(UTC+00:00)

Cosmos 1818 - Pass Details

Date: 18 May 2021
Orbit: 771 x 802 km, 65.0° (Epoch: 15 June)

Event Time Altitude Azimuth Distance (km) Brightness Sun altitude
Rises 20:25:34 0° 326° (NW) 3,320 8.6 -15.1°
Reaches altitude 10° 20:28:01 10° 327° (NNW) 2,386 7.4 -15.4°
Maximum altitude 20:33:31 79° 54° (NE) 821 3.6 -16.0°
Enters shadow 20:36:36 27° 139° (SE) 1,500 4.4 -16.4°
